Whitehorse Intl current weather conditions

sailwx.info

Wind at 1 knots

Air temperature -21.0° C
Visibility: greater than 8.7 NM
Dewpoint -24.0° C
Present weather: Light snow.

Last reported at 2017-Nov-21 11:00 UTC.
Time now 2017-Nov-21 12:10 UTC

Location: N 60°43' W 135°04'.
View on Google Maps.

See reports from other nearby stations

  
Tides and Currents Weather Stations Pressure Air Temp Water Temp Dewpoint Dewpoint Depression Visibility Wind Speed Wind Dir Waves Ship Positions
date/time (UTC)wind fromknots sea level pressurealtimeterstation pressurevisibilityair tempwater tempwave heightnotes
2017-Nov-21 11:00 8.7-21.0 Light snow.
2017-Nov-21 10:00 320 4 3.5-20.0 Light snow.
2017-Nov-21 09:33 320 5 3.5-20.0 Light snow.
2017-Nov-21 09:00 310 6 2.2-20.0 Light snow.
2017-Nov-21 08:00 320 5 2.2-20.0 Light snow.
2017-Nov-21 07:00 310 6 1.7-20.0 Light snow.
2017-Nov-21 06:56 320 6 1.7-20.0 Light snow.
2017-Nov-21 06:37 330 5 2.2-20.0 Light snow.
2017-Nov-21 06:00 330 6 2.6-20.0 Light snow.
2017-Nov-21 05:00 320 5 3.5-20.0 Light snow.
2017-Nov-21 04:00 310 8 3.5-20.0 Light snow.
2017-Nov-21 03:25 320 6 1.7-20.0 Light snow.
2017-Nov-21 03:00 320 7 2.6-20.0 Light snow.
2017-Nov-21 02:00 330 9 3.5-20.0 Light snow.
2017-Nov-21 01:00 330 6 10.4-20.0 Light snow.
2017-Nov-21 00:00 340 6 13.0-20.0 Light snow.
2017-Nov-20 23:14 320 6 5.2-20.0 Light snow.
2017-Nov-20 23:00 340 5 2.0-20.0 Light snow.
2017-Nov-20 22:56 330 6 1.5-20.0 Light snow.
2017-Nov-20 22:00 330 6 0.9-20.0 Light snow.
2017-Nov-20 21:00 340 7 0.9-21.0 Light snow.
2017-Nov-20 20:37 330 6 0.9-21.0 Light snow.
2017-Nov-20 20:00 330 6 1.3-21.0 Light snow.
2017-Nov-20 19:00 330 5 1.7-21.0 Light snow.
2017-Nov-20 18:52 320 6 1.7-21.0 Light snow.
2017-Nov-20 18:22 340 6 0.4-21.0 Light snow.
2017-Nov-20 18:13 340 6 1.7-21.0 Light snow.
2017-Nov-20 18:00 350 6 5.2-21.0 Light snow.
2017-Nov-20 17:48 340 6 6.9-21.0 Light snow.
2017-Nov-20 17:00 340 5 13.0-21.0
2017-Nov-20 16:40 340 5 13.0-21.0
2017-Nov-20 16:00 340 6 13.0-21.0
2017-Nov-20 15:00 330 6 13.0-21.0
2017-Nov-20 14:00 350 6 13.0-21.0
2017-Nov-20 13:00 340 2 8.7-21.0
2017-Nov-20 12:00 8.7-22.0
2017-Nov-20 11:00 8.7-23.0
2017-Nov-20 10:55 290 1 8.7-23.0
2017-Nov-20 10:37 280 4 13.0-23.0
2017-Nov-20 10:00 130 2 13.0-23.0
2017-Nov-20 09:00 210 1 13.0-23.0
2017-Nov-20 08:00 13.0-23.0
2017-Nov-20 07:00 13.0-24.0
2017-Nov-20 06:00 13.0-24.0
2017-Nov-20 05:00 13.0-25.0
2017-Nov-20 04:00 180 4 13.0-24.0
2017-Nov-20 03:00 13.0-24.0
2017-Nov-20 02:00 160 6 13.0-24.0
2017-Nov-20 01:53 160 6 13.0-25.0
2017-Nov-20 01:00 170 6 13.0-24.0 Ice crystals. Fog in the vicinity.
2017-Nov-20 00:00 180 6 34.8-24.0 Ice crystals. Fog in the vicinity.
2017-Nov-19 23:00 170 7 34.8-23.0 Ice crystals. Fog in the vicinity.
2017-Nov-19 22:00 160 6 21.7-23.0 Ice crystals.
2017-Nov-19 21:00 160 6 13.0-23.0 Ice crystals.
2017-Nov-19 20:14 150 5 13.0-22.0 Ice crystals.
2017-Nov-19 20:00 140 4 13.0-22.0 Light snow.
2017-Nov-19 19:00 150 5 8.7-23.0 Light snow.
2017-Nov-19 18:00 8.7-22.0 Light snow.
2017-Nov-19 17:00 280 4 8.7-22.0 Light snow.
2017-Nov-19 16:00 5.2-23.0 Light snow.
2017-Nov-19 15:35 8.7-23.0 Light snow.
2017-Nov-19 15:00 360 2 8.7-23.0 Light snow.
2017-Nov-19 14:00 10.4-23.0 Light snow.
2017-Nov-19 13:00 330 5 10.4-23.0 Light snow.
2017-Nov-19 12:00 360 2 10.4-22.0 Light snow.